TimeEST,TemperatureF,Dew PointF,Humidity,Sea Level PressureIn,VisibilityMPH,Wind Direction,Wind SpeedMPH,Gust SpeedMPH,PrecipitationIn,Events,Conditions,WindDirDegrees,DateUTC
12:56 AM,14.0,11.1,88,30.17,5.0,SW,5.8,-,N/A,,Mostly Cloudy,230,2013-01-02 05:56:00
1:17 AM,14.0,10.4,86,30.12,5.0,SW,4.6,-,N/A,,Partly Cloudy,230,2013-01-02 06:17:00
1:56 AM,15.1,12.0,88,30.16,5.0,SSW,4.6,-,N/A,,Partly Cloudy,200,2013-01-02 06:56:00
2:56 AM,13.1,10.0,88,30.18,4.0,WSW,4.6,-,N/A,,Clear,240,2013-01-02 07:56:00
3:56 AM,15.1,13.1,92,30.20,3.0,West,6.9,-,N/A,,Clear,270,2013-01-02 08:56:00
4:07 AM,14.0,12.2,93,30.15,2.5,WNW,5.8,-,N/A,,Clear,290,2013-01-02 09:07:00
4:19 AM,14.0,12.2,93,30.15,2.0,West,5.8,-,N/A,,Scattered Clouds,280,2013-01-02 09:19:00
4:32 AM,14.0,10.4,86,30.14,1.8,WNW,6.9,-,N/A,,Mostly Cloudy,300,2013-01-02 09:32:00
4:46 AM,14.0,12.2,93,30.14,2.0,Calm,Calm,-,N/A,,Overcast,0,2013-01-02 09:46:00
4:56 AM,14.0,11.1,88,30.20,1.5,Calm,Calm,-,N/A,,Overcast,0,2013-01-02 09:56:00
5:08 AM,14.0,10.4,86,30.15,1.2,Calm,Calm,-,N/A,,Overcast,0,2013-01-02 10:08:00
5:16 AM,14.0,10.4,86,30.15,1.0,Calm,Calm,-,N/A,,Overcast,0,2013-01-02 10:16:00
5:27 AM,12.2,10.4,92,30.15,0.8,Calm,Calm,-,N/A,,Overcast,0,2013-01-02 10:27:00
5:56 AM,12.0,10.0,92,30.21,0.5,Calm,Calm,-,N/A,Fog,Light Freezing Fog,0,2013-01-02 10:56:00
6:27 AM,10.4,8.6,92,30.15,0.2,Calm,Calm,-,N/A,Fog,Light Freezing Fog,0,2013-01-02 11:27:00
6:49 AM,10.4,6.8,85,30.16,0.2,Calm,Calm,-,N/A,Fog,Light Freezing Fog,0,2013-01-02 11:49:00
6:56 AM,11.1,8.1,87,30.21,0.2,Calm,Calm,-,N/A,Fog,Light Freezing Fog,0,2013-01-02 11:56:00
7:56 AM,7.2,3.0,83,30.23,0.2,Calm,Calm,-,N/A,Fog,Light Freezing Fog,0,2013-01-02 12:56:00
8:56 AM,4.1,0.1,84,30.25,0.2,Calm,Calm,-,N/A,Fog,Light Freezing Fog,0,2013-01-02 13:56:00
9:35 AM,3.2,1.4,92,30.21,0.2,Calm,Calm,-,N/A,Fog,Light Freezing Fog,0,2013-01-02 14:35:00
9:56 AM,6.1,3.0,87,30.28,0.2,Calm,Calm,-,N/A,Fog,Light Freezing Fog,0,2013-01-02 14:56:00
10:23 AM,8.6,5.0,85,30.23,0.8,Calm,Calm,-,N/A,,Overcast,0,2013-01-02 15:23:00
10:28 AM,8.6,6.8,92,30.23,1.2,Calm,Calm,-,N/A,,Overcast,0,2013-01-02 15:28:00
10:56 AM,13.1,10.0,88,30.30,1.2,Calm,Calm,-,N/A,,Clear,0,2013-01-02 15:56:00
11:07 AM,12.2,10.4,92,30.23,2.0,WNW,3.5,-,N/A,,Clear,290,2013-01-02 16:07:00
11:20 AM,14.0,10.4,86,30.24,3.0,West,3.5,-,N/A,,Clear,260,2013-01-02 16:20:00
11:56 AM,16.2,14.0,91,30.28,4.0,Calm,Calm,-,N/A,,Clear,0,2013-01-02 16:56:00
12:56 PM,18.1,15.1,88,30.26,5.0,Calm,Calm,-,N/A,,Clear,0,2013-01-02 17:56:00
1:56 PM,17.1,10.0,74,30.25,5.0,SE,4.6,-,N/A,,Haze,140,2013-01-02 18:56:00
2:56 PM,17.1,10.0,74,30.25,4.0,ESE,4.6,-,N/A,,Haze,110,2013-01-02 19:56:00
3:56 PM,17.1,10.0,74,30.25,4.0,ESE,5.8,-,N/A,,Haze,110,2013-01-02 20:56:00
4:56 PM,16.2,9.1,74,30.25,5.0,SE,4.6,-,N/A,,Haze,130,2013-01-02 21:56:00
5:56 PM,13.1,8.1,80,30.26,6.0,SE,4.6,-,N/A,,Haze,140,2013-01-02 22:56:00
6:56 PM,10.0,7.2,88,30.28,5.0,Calm,Calm,-,N/A,,Clear,0,2013-01-02 23:56:00
7:56 PM,11.1,8.1,87,30.28,4.0,Calm,Calm,-,N/A,,Clear,0,2013-01-03 00:56:00
8:56 PM,9.1,6.1,87,30.30,4.0,Calm,Calm,-,N/A,,Clear,0,2013-01-03 01:56:00
9:56 PM,9.1,6.1,87,30.29,5.0,Calm,Calm,-,N/A,,Clear,0,2013-01-03 02:56:00
10:56 PM,5.0,1.0,84,30.27,4.0,Calm,Calm,-,N/A,,Clear,0,2013-01-03 03:56:00
11:56 PM,5.0,2.1,88,30.27,2.0,Calm,Calm,-,N/A,,Clear,0,2013-01-03 04:56:00